SDX02 (62460 NORAD) Tracking and Keplerian Element Data

This shows tracking and keplerian element data for the satellite.

Feedback or suggestion? Click here.




ElementValue
Catalog62460
NameSDX02
Epoch Orbit245
Epoch Day34.69247682
Epoch Year2025
RAAN101.5905
Inclination54.9979
Eccentricity0.0012704
Argument of Perigee26.4957
Mean Anonmoly333.6715
Mean Motion15.33048822
Decay Rate0.0002554
L11 62460U 24253B 25034.69247682 .00025540 00000+0 79675-3 0 9994
L22 62460 54.9979 101.5905 0012704 26.4957 333.6715 15.33048822 2456



Live tracking and technical data element details for SDX02 (NORAD 62460). SDX02 can be tracked NOW for your location showing map with azimuth and elevation plus other details from your city location.







IsCatalogInMostPopularTable: catalog: 62460, numindb: 8
Update: records affected: 1



GetName: 62460 SDX02

Hit Count: updated at: Sun, 18 May 2025 23:11:11 GMT